Weather Roundup
Issued by NWS

Home | Current Version | Previous Version | Graphics & Text | Print | Product List | Glossary Off
Versions: 1 2 3 4 5 6 7 8 9 10 11 12 13 14 15 16 17 18 19 20 21 22 23 24 25 26 27 28 29 30 31 32 33 34 35 36 37 38 39 40 41 42 43 44 45 46 47 48 49 50

062
NZUS93 KARX 191310
HRRWXR

CURRENT HOURLY OBSERVATIONS ACROSS
MUCH OF THE UPPER MISSISSIPPI VALLEY
NATIONAL WEATHER SERVICE LA CROSSE WI
700 AM CST SUN NOV 19 2017


...SOUTHEAST MINNESOTA...


CITY           SKY/WX    TMP DP  RH WIND       PRES   REMARKS
ROCHESTER      CLEAR     15  11  83 W10       30.05R WCI   2
ROCHESTER/MAYO FAIR      17  12  80 W8        30.06R WCI   7
WINONA         PTCLDY    21  14  73 NW8       30.08R WCI  12
AUSTIN         CLEAR     16  10  79 W8        30.07R WCI   5
ALBERT LEA     CLEAR     16  10  79 W5        30.09R WCI   9
DODGE CENTER   CLEAR     16  10  79 W8        30.05R WCI   5
PRESTON        CLEAR     15  10  82 W9        30.05S WCI   3
OWATONNA       CLEAR     14  10  85 SW7       30.08R WCI   4
FARIBAULT      CLEAR     18  12  79 W7        30.08R WCI   8
$$

...ELSEWHERE IN MINNESOTA...


CITY           SKY/WX    TMP DP  RH WIND       PRES   REMARKS
MINNEAPOLIS    CLEAR     18  12  77 SW7       30.09R WCI   9
INTNL FALLS    MOCLDY     5   0  79 W5        29.90F WCI  -4
DULUTH         PTCLDY     8   5  87 W10       29.93S WCI  -6
RED WING       CLEAR     18  10  73 W5        30.06R WCI  11
REDWOOD FALLS  CLOUDY    18  12  77 SW7       30.07F WCI   9
MANKATO        CLEAR     16  12  84 SW5       30.09S WCI   9
WORTHINGTON    CLOUDY    19  15  84 SW10      30.08F WCI   7
FAIRMONT       CLEAR     19  14  81 W8        30.10F WCI   9
$$

...SOUTHWEST WISCONSIN...


CITY           SKY/WX    TMP DP  RH WIND       PRES   REMARKS
LA CROSSE      PTCLDY    20  12  71 W9        30.06R WCI   9
PRAIRIE DU CHI CLEAR     21  12  68 W8        30.09R WCI  11
BOSCOBEL       CLEAR     21  12  68 CALM      30.07R
LONE ROCK      CLEAR     21  15  78 W8        30.04R WCI  11
PLATTEVILLE    CLEAR     21  16  83 NW9       30.03S WCI  10
FORT MC COY    CLEAR     18  12  79 W6        30.05R WCI   9
CAMP DOUGLAS   PTCLDY   N/A N/A N/A W10       30.02R
MAUSTON-NEW LI MOSUNNY   19  13  75 NW13      30.01R WCI   6
VIROQUA        FAIR      18  14  86 NW6       30.01R WCI  10
WIS DELLS      CLEAR     19  12  73 NW10      30.00R WCI   8
$$

...ELSEWHERE IN WISCONSIN...


CITY           SKY/WX    TMP DP  RH WIND       PRES   REMARKS
MILWAUKEE      MOCLDY    29  16  58 NW15      29.95R WCI  18
MADISON        PTCLDY    22  15  75 NW7       29.98R WCI  13
GREEN BAY      CLOUDY    26  15  63 NW17      29.93R WCI  13
EAU CLAIRE     CLEAR     15  10  80 W6        30.03S WCI   6
BLACK RVR FLS  FAIR      17  10  73 W5        30.03S WCI  10
MEDFORD        PTCLDY    15  10  80 W8        29.93S WCI   3
WAUSAU         MOCLDY    19  10  68 NW13      29.93R WCI   6
WIS RAPIDS     CLOUDY    19  12  74 NW12      29.99R WCI   7
MARSHFIELD     PTCLDY    16   9  74 NW15      29.95R WCI   1
RICE LAKE      CLEAR     15  11  85 W5        30.03R WCI   7
$$

...NORTHEAST IOWA...


CITY           SKY/WX    TMP DP  RH WIND       PRES   REMARKS
WATERLOO       CLEAR     18  11  74 W6        30.11R WCI  10
DUBUQUE        PTCLDY    20  13  74 NW13      30.04S WCI   7
DECORAH        CLEAR     18  12  79 VRB5      30.05R WCI  11
MASON CITY     CLEAR     14  10  84 W7        30.12R WCI   4
CHARLES CITY   CLEAR     18  12  79 NW7       30.09S WCI   8
OELWEIN        CLEAR     18  16  93 W8        30.09R WCI   7
$$

...ELSEWHERE IN IOWA...


CITY           SKY/WX    TMP DP  RH WIND       PRES   REMARKS
DES MOINES     PTCLDY    22  15  75 W6        30.18R WCI  14
IOWA CITY      CLEAR     23  13  65 NW12      30.14R WCI  12
FORT DODGE     CLEAR     18  15  88 CALM      30.15R
MARSHALLTOWN   CLEAR     19  14  81 W8        30.13R WCI   9
CEDAR RAPIDS   CLEAR     18  13  80 NW10      30.11R WCI   6
$$

...NORTHERN ILLINOIS...


CITY           SKY/WX    TMP DP  RH WIND       PRES   REMARKS
CHICAGO-OHARE  MOCLDY    30  19  63 NW18G25   29.98R WCI  18
CHICAGO-MIDWAY MOCLDY    31  21  66 W14G23    29.99R WCI  21
MOLINE         CLEAR     24  14  65 NW16      30.10R WCI  11
ROCKFORD       PTCLDY    24  17  74 W10       30.03R WCI  14
PEORIA         CLEAR     24  17  74 NW8       30.11R WCI  15
$$

NOTE: "FAIR" INDICATES FEW OR NO CLOUDS BELOW 12,000 FEET WITH NO
SIGNIFICANT WEATHER AND/OR OBSTRUCTIONS TO VISIBILITY. WIND
SPEEDS ARE IN MILES-PER-HOUR.




USA.gov is the U.S. government's official web portal to all federal, state and local government web resources and services.